This demonstration page uses our WeatherBlox Daily Observations layout. Learn more.

Left ArrowRight Arrow

38.88101, -77.10428

Hourly Observations for September 20, 2022

Temp ( °F °C ) Dew Point ( °F °C ) Humidity (%) Winds ( mph kmh ) Pressure ( in mb ) Visibility ( mi km ) Precip ( " mm )
12:52 am 00:52 Mostly Cloudy 72 22.2 65 18.3 79 79 VRB 6 9 29.92 1013 10 16 0.00 0.00
1:52 am 01:52 Mostly Cloudy 73 22.8 65 18.3 76 76 SSW 5 7 29.91 1013 10 16 0.00 0.00
2:52 am 02:52 Partly Cloudy 72 22.2 65 18.3 79 79 SW 5 7 29.91 1013 10 16 0.00 0.00
3:52 am 03:52 Partly Cloudy 70 21.1 64 17.8 81 81 SW 5 7 29.91 1013 10 16 0.00 0.00
4:52 am 04:52 Mostly Cloudy 69 20.6 65 18.3 87 87 S 3 6 29.92 1013 10 16 0.00 0.00
5:52 am 05:52 Mostly Cloudy 71 21.7 65 18.3 81 81 W 5 7 29.93 1014 10 16 0.00 0.00
6:52 am 06:52 Mostly Cloudy 71 21.7 65 18.3 81 81 Calm 29.95 1014 10 16 0.00 0.00
7:52 am 07:52 Mostly Sunny 73 22.8 65 18.3 76 76 W 5 7 29.97 1015 10 16 0.00 0.00
8:52 am 08:52 Mostly Sunny 76 24.4 64 17.8 67 67 N 8 13 29.98 1015 10 16 0.00 0.00
9:52 am 09:52 Mostly Sunny 79 26.1 61 16.1 54 54 N 7 11 29.98 1015 10 16 0.00 0.00
10:52 am 10:52 Mostly Sunny 80 26.7 56 13.3 44 44 NNW 13 20 29.98 1015 10 16 0.00 0.00
11:52 am 11:52 Mostly Sunny 82 27.8 57 13.9 43 43 NNW 9 15 29.98 1015 10 16 0.00 0.00
12:52 pm 12:52 Mostly Sunny 83 28.3 56 13.3 40 40 NNW 14 22 29.98 1015 10 16 0.00 0.00
1:52 pm 13:52 Mostly Sunny 85 29.4 59 15 42 42 N 12 19 29.96 1015 10 16 0.00 0.00
2:52 pm 14:52 Mostly Sunny 85 29.4 58 14.4 40 40 NNW 12 19 29.94 1014 10 16 0.00 0.00
3:52 pm 15:52 Mostly Sunny 85 29.4 58 14.4 40 40 N 12 19 29.94 1014 10 16 0.00 0.00
4:52 pm 16:52 Mostly Sunny 84 28.9 59 15 43 43 N 9 15 29.93 1014 10 16 0.00 0.00
5:52 pm 17:52 Mostly Sunny 83 28.3 58 14.4 43 43 NNW 12 19 29.95 1014 10 16 0.00 0.00
6:52 pm 18:52 Partly Cloudy 80 26.7 58 14.4 47 47 NNW 12 19 29.96 1015 10 16 0.00 0.00
7:52 pm 19:52 Partly Cloudy 78 25.6 56 13.3 47 47 NNW 6 9 29.96 1015 10 16 0.00 0.00
8:52 pm 20:52 Partly Cloudy 77 25 56 13.3 48 48 NNW 8 13 29.98 1015 10 16 0.00 0.00
9:52 pm 21:52 Partly Cloudy 74 23.3 57 13.9 56 56 Calm 29.98 1015 10 16 0.00 0.00
10:52 pm 22:52 Mostly Cloudy 74 23.3 59 15 60 60 NW 3 6 29.98 1015 10 16 0.00 0.00
11:52 pm 23:52 Mostly Cloudy 70 21.1 60 15.6 71 71 NNW 3 6 29.99 1016 10 16 0.00 0.00

Powered by AerisWeather